Terug naar catalogus

ONEWEB-0689

ActiefCommunicatiePO
NORAD 61597·PAYLOAD·🇬🇧 United Kingdom

Gelanceerd Oct 20, 2024 vanaf Vandenberg Space Force Base

Loading…

Volgende Passages (komende 24 uur)

TLE

VersSource: CelesTrak SupGP

Epoch: Sep 14, 2026, 22:29 UTC

1 61597C 24188D   26257.93699491 -.00001612  00000+0 -45552-2 0  2574
2 61597  87.8968   3.2146 0001567 110.0651 350.1114 13.11414727    12

Volg ONEWEB-0689 in realtime met AllMySat

Download on the App Store